TimePDT,TemperatureF,Dew PointF,Humidity,Sea Level PressureIn,VisibilityMPH,Wind Direction,Wind SpeedMPH,Gust SpeedMPH,PrecipitationIn,Events,Conditions,WindDirDegrees,DateUTC
12:00 AM,59.0,42.8,55,29.89,9.0,SE,3.5,-,N/A,,Clear,140,2013-05-06 07:00:00
1:00 AM,57.2,42.8,59,29.90,9.0,SSE,4.6,-,N/A,,Clear,150,2013-05-06 08:00:00
2:00 AM,56,42,48,29.91,9,SSE,4.6,,,,,150,2013-05-06 09:00:00
2:00 AM,55.4,41.0,58,29.91,9.0,SSE,4.6,-,N/A,,Clear,160,2013-05-06 09:00:00
3:00 AM,53.6,41.0,62,29.91,9.0,SSE,4.6,-,N/A,,Clear,160,2013-05-06 10:00:00
4:00 AM,51.8,41.0,67,29.93,9.0,SSE,2.3,-,N/A,,Clear,160,2013-05-06 11:00:00
5:00 AM,49,42,67,29.94,9,Calm,Calm,,,,,,2013-05-06 12:00:00
5:00 AM,50.0,41.0,71,29.94,9.0,Calm,Calm,-,N/A,,Clear,0,2013-05-06 12:00:00
6:00 AM,48.2,41.0,76,29.95,9.0,Calm,Calm,-,N/A,,Clear,0,2013-05-06 13:00:00
7:00 AM,48.2,41.0,76,29.95,9.0,SSE,4.6,-,N/A,,Clear,150,2013-05-06 14:00:00
8:00 AM,51,42,64,29.94,9,South,3.5,,,,,190,2013-05-06 15:00:00
8:00 AM,51.8,42.8,71,29.94,9.0,South,4.6,-,N/A,,Clear,180,2013-05-06 15:00:00
9:00 AM,59.0,41.0,51,29.93,9.0,South,8.1,-,N/A,,Clear,180,2013-05-06 16:00:00
10:00 AM,64.4,41.0,42,29.90,9.0,SSE,3.5,-,N/A,,Clear,160,2013-05-06 17:00:00
11:00 AM,70,42,25,29.86,9,South,3.5,,,,,180,2013-05-06 18:00:00
11:00 AM,69.8,42.8,38,29.86,9.0,South,2.3,-,N/A,,Clear,180,2013-05-06 18:00:00
12:00 PM,75.2,41.0,29,29.82,9.0,SSW,2.3,-,N/A,,Clear,210,2013-05-06 19:00:00
1:00 PM,77.0,42.8,29,29.78,9.0,WNW,2.3,-,N/A,,Clear,300,2013-05-06 20:00:00
2:00 PM,83,46,18,29.74,9,Calm,Calm,,,,,,2013-05-06 21:00:00
2:00 PM,82.4,46.4,28,29.74,9.0,Calm,Calm,-,N/A,,Clear,0,2013-05-06 21:00:00
3:00 PM,89.6,44.6,21,29.70,9.0,South,9.2,-,N/A,,Clear,190,2013-05-06 22:00:00
4:00 PM,91.4,41.0,17,29.67,9.0,SSW,13.8,20.7,N/A,,Clear,200,2013-05-06 23:00:00
5:00 PM,90,40,10,29.66,9,South,13.8,,,,,190,2013-05-07 00:00:00
5:00 PM,91.4,41.0,17,29.66,9.0,South,15.0,20.7,N/A,,Clear,190,2013-05-07 00:00:00
6:00 PM,87.8,39.2,18,29.66,9.0,South,11.5,17.3,N/A,,Clear,190,2013-05-07 01:00:00
7:00 PM,80.6,39.2,23,29.67,9.0,South,11.5,-,N/A,,Clear,180,2013-05-07 02:00:00
8:00 PM,76,41,18,29.68,9,South,10.4,,,,,190,2013-05-07 03:00:00
8:00 PM,75.2,41.0,29,29.68,9.0,SSW,10.4,-,N/A,,Clear,200,2013-05-07 03:00:00
9:00 PM,77.0,39.2,26,29.70,9.0,SSW,12.7,23.0,N/A,,Clear,200,2013-05-07 04:00:00
10:00 PM,75.2,39.2,27,29.73,9.0,South,18.4,29.9,N/A,,Clear,170,2013-05-07 05:00:00
11:00 PM,72,40,20,29.75,9,SSE,17.3,,,,,160,2013-05-07 06:00:00
11:00 PM,71.6,39.2,31,29.75,9.0,SSE,15.0,27.6,N/A,,Clear,150,2013-05-07 06:00:00